EDT,Max TemperatureF,Mean TemperatureF,Min TemperatureF,Max Dew PointF,MeanDew PointF,Min DewpointF,Max Humidity, Mean Humidity, Min Humidity, Max Sea Level PressureIn, Mean Sea Level PressureIn, Min Sea Level PressureIn, Max VisibilityMiles, Mean VisibilityMiles, Min VisibilityMiles, Max Wind SpeedMPH, Mean Wind SpeedMPH, Max Gust SpeedMPH,PrecipitationIn, CloudCover, Events, WindDirDegrees
2012-9-1,90,80,69,68,63,57,83,61,34,30.08,30.01,29.94,10,10,9,8,1,,0.00,1,,7
2012-9-2,80,76,71,69,67,64,91,76,60,30.11,30.07,30.04,10,10,7,6,1,,0.00,6,,124
2012-9-3,78,73,69,70,65,58,94,81,52,30.18,30.13,30.09,10,9,3,12,3,,0.03,8,Rain,104
2012-9-4,82,75,68,74,70,66,94,88,70,30.12,29.98,29.84,10,7,1,12,2,,0.39,7,Rain,123
2012-9-5,82,75,68,73,70,62,94,83,54,29.86,29.81,29.79,10,7,2,9,4,,0.20,6,Rain,282
2012-9-6,81,72,64,66,65,62,93,79,58,29.94,29.90,29.86,10,10,10,5,0,,0.00,1,,190
2012-9-7,89,77,66,70,67,64,93,72,45,29.95,29.91,29.85,10,10,6,6,2,,0.00,1,,227
2012-9-8,86,74,64,73,68,61,90,82,59,29.88,29.73,29.55,10,8,0,15,3,38,1.00,6,Fog-Rain,204
2012-9-9,78,68,60,62,56,49,93,73,37,29.93,29.86,29.80,10,10,4,5,1,,0.07,1,Rain,327
2012-9-10,73,63,54,57,48,41,93,62,36,30.17,30.03,29.93,10,10,10,12,2,28,0.00,1,,345
2012-9-11,75,60,46,51,46,42,90,63,33,30.31,30.26,30.18,10,10,10,6,1,,0.00,0,,33
2012-9-12,81,65,50,54,51,44,89,65,28,30.39,30.35,30.31,10,10,10,5,0,,0.00,0,,273
2012-9-13,81,68,54,59,55,50,90,68,34,30.40,30.35,30.29,10,10,10,8,1,,0.00,0,,178
2012-9-14,81,68,55,61,57,53,90,70,39,30.31,30.21,30.11,10,10,10,8,2,,0.00,0,,186
2012-9-15,73,65,55,60,50,45,87,61,39,30.17,30.13,30.09,10,10,10,14,4,25,0.02,2,Rain,320
2012-9-16,75,60,48,50,47,45,93,65,35,30.16,30.11,30.06,10,10,10,9,1,17,0.00,1,,300
2012-9-17,77,62,48,56,49,45,90,63,36,30.14,30.09,30.04,10,10,10,7,1,,0.00,1,,207
2012-9-18,78,71,64,70,66,57,94,85,68,30.03,29.78,29.63,10,7,0,20,7,34,1.65,7,Fog-Rain,183
2012-9-19,70,62,52,65,47,39,90,60,33,30.21,30.01,29.75,10,10,10,13,4,18,0.00,3,Rain,322
2012-9-20,70,57,46,55,51,44,90,73,56,30.24,30.18,30.12,10,10,10,8,2,31,0.00,5,Rain,102
2012-9-21,73,65,57,56,54,51,94,75,46,30.14,30.10,30.04,10,10,10,9,1,,0.00,4,,135
2012-9-22,77,64,54,67,60,52,94,82,65,30.04,29.91,29.80,10,9,2,14,3,24,0.20,6,Rain,150
2012-9-23,68,60,50,61,46,38,90,63,33,30.14,30.05,29.88,10,10,6,10,3,18,0.00,1,,320
2012-9-24,66,57,48,47,42,34,90,63,30,30.20,30.16,30.12,10,10,10,12,2,18,0.00,2,,290
2012-9-25,73,58,42,53,45,39,89,65,37,30.22,30.17,30.14,10,10,10,8,2,,0.00,1,,209
2012-9-26,75,68,60,61,58,54,90,75,57,30.14,30.09,30.04,10,10,8,7,2,,0.02,6,Rain,237
2012-9-27,77,70,63,62,58,53,93,72,48,30.19,30.15,30.08,10,9,4,6,2,,0.03,5,Rain,48
2012-9-28,70,63,57,65,60,54,94,89,77,30.18,30.04,29.96,10,7,2,9,3,,0.23,7,Rain,45
2012-9-29,64,60,55,55,54,52,90,81,70,29.97,29.94,29.90,10,10,10,6,1,,0.00,8,Rain,19
2012-9-30,69,60,51,52,49,44,94,74,43,29.90,29.85,29.79,10,10,10,12,1,,0.04,4,,305